FW1609 Weather Reports


time (UTC)temp
F
wind
direction
speed
knots
gust
knots
rain 1hr
in
rain 24hr
in
rain mn
in
humidity
%
barometer
mb
20260831053028 70 260 0.0 2.6 0.00 0.00 0.00 32 1026.1
20260831051526 70 222 0.9 2.6 0.00 0.00 0.00 33 1026.1
20260831050025 70 185 0.0 3.5 0.00 0.00 0.00 32 1026.2
20260831044607 70 121 0.0 5.2 0.00 0.00 0.00 31 1026.3
20260831043050 69 124 1.7 4.3 0.00 0.00 0.00 35 1026.3
20260831041551 69 265 0.9 5.2 0.00 0.00 0.00 30 1026.6
20260831040042 69 282 0.0 2.6 0.00 0.00 0.00 32 1026.7
20260831034538 69 204 0.0 2.6 0.00 0.00 0.00 40 1026.9
20260831033039 69 208 0.0 4.3 0.00 0.00 0.00 41 1027.0
20260831031517 69 39 0.0 2.6 0.00 0.00 0.00 37 1027.3
20260831030101 68 150 0.0 2.6 0.00 0.00 0.00 41 1027.6
20260831024528 67 242 0.0 2.6 0.00 0.00 0.00 42 1027.8
20260831023027 67 286 0.9 5.2 0.00 0.00 0.00 44 1028.0
20260831021556 67 189 0.0 0.9 0.00 0.00 0.00 50 1028.3
20260831020049 67 212 0.0 0.9 0.00 0.00 0.00 50 1028.6
20260831014542 66 242 0.0 0.9 0.00 0.00 0.00 48 1028.8
20260831013042 65 190 0.0 1.7 0.00 0.00 0.00 51 1029.1
20260831011538 64 258 0.0 0.0 0.00 0.00 0.00 52 1029.3
20260831010039 63 258 0.0 1.7 0.00 0.00 0.00 50 1029.4
20260831004524 62 262 0.0 0.0 0.00 0.00 0.00 64 1029.6
20260831003020 61 281 0.0 0.0 0.00 0.00 0.00 66 1029.7
20260831001515 59 281 0.0 0.0 0.00 0.00 0.00 71 1029.8
20260831000012 56 282 0.0 0.0 0.00 0.00 0.00 75 1030.0
20260830234605 54 289 0.0 0.0 0.00 0.00 0.00 82 1030.1
20260830233056 52 289 0.0 0.0 0.00 0.00 0.00 90 1030.1
20260830231551 49 289 0.0 0.0 0.00 0.00 0.00 95 1030.2
20260830230048 47 286 0.0 0.0 0.00 0.00 0.00 96 1030.4
20260830224538 46 286 0.0 0.0 0.00 0.00 0.00 96 1030.5
20260830223038 45 286 0.0 0.0 0.00 0.00 0.00 96 1030.4
20260830221534 44 286 0.0 0.0 0.00 0.00 0.00 96 1030.5
20260830220025 42 296 0.0 0.0 0.00 0.00 0.00 96 1030.3
20260830214520 40 296 0.0 0.0 0.00 0.00 0.00 96 1030.3
20260830213014 38 296 0.0 0.0 0.00 0.00 0.00 93 1030.2
20260830211508 37 296 0.0 0.0 0.00 0.00 0.00 93 1030.0
20260830210005 36 296 0.0 0.0 0.00 0.00 0.00 92 1029.7
20260830204501 36 296 0.0 0.0 0.00 0.00 0.00 92 1029.6
20260830203054 35 317 0.0 0.0 0.00 0.00 0.00 91 1029.5
20260830201552 36 317 0.0 0.0 0.00 0.00 0.00 91 1029.2
20260830200100 36 317 0.0 0.0 0.00 0.00 0.00 91 1029.0
20260830194552 37 317 0.0 0.0 0.00 0.00 0.00 91 1029.0
20260830193016 37 317 0.0 0.0 0.00 0.00 0.00 91 1029.1
20260830191514 37 317 0.0 0.0 0.00 0.00 0.00 91 1029.2
20260830190010 37 317 0.0 0.0 0.00 0.00 0.00 91 1029.1
20260830184519 37 317 0.0 0.0 0.00 0.00 0.00 90 1028.9
20260830183015 38 317 0.0 0.0 0.00 0.00 0.00 91 1028.9
20260830181506 37 317 0.0 0.0 0.00 0.00 0.00 90 1028.9
20260830180100 38 317 0.0 0.0 0.00 0.00 0.00 90 1028.9
20260830174615 38 317 0.0 0.0 0.00 0.00 0.00 91 1028.9
20260830173112 37 317 0.0 0.0 0.00 0.00 0.00 90 1028.9
20260830171558 38 317 0.0 1.7 0.00 0.00 0.00 89 1028.9
20260830170046 39 318 0.0 0.0 0.00 0.00 0.00 90 1028.8
20260830164546 39 318 0.0 0.0 0.00 0.00 0.00 90 1028.8
20260830163042 39 318 0.0 0.0 0.00 0.00 0.00 88 1028.8
20260830161538 40 318 0.0 0.0 0.00 0.00 0.00 89 1028.9
20260830160031 40 318 0.0 0.0 0.00 0.00 0.00 89 1029.0
20260830154530 41 318 0.0 0.0 0.00 0.00 0.00 89 1029.1
20260830153027 41 318 0.0 0.0 0.00 0.00 0.00 88 1028.9
20260830151525 41 318 0.0 0.0 0.00 0.00 0.00 88 1029.1
20260830150055 42 318 0.0 0.0 0.00 0.00 0.00 88 1029.2
20260830144557 42 318 0.0 0.0 0.00 0.00 0.00 88 1029.3
20260830143046 42 318 0.0 0.0 0.00 0.00 0.00 87 1029.4
20260830141544 43 318 0.0 0.0 0.00 0.00 0.00 88 1029.3
20260830140043 43 318 0.0 0.0 0.00 0.00 0.00 87 1029.5
20260830134545 43 318 0.0 0.0 0.00 0.00 0.00 87 1029.4
20260830133034 44 318 0.0 0.0 0.00 0.00 0.00 86 1029.5
20260830131535 44 318 0.0 0.0 0.00 0.00 0.00 86 1029.5
20260830130030 44 318 0.0 0.0 0.00 0.00 0.00 85 1029.3
20260830124537 44 318 0.0 0.0 0.00 0.00 0.00 85 1029.4
20260830123023 45 318 0.0 0.0 0.00 0.00 0.00 84 1029.3
20260830121522 46 318 0.0 0.0 0.00 0.00 0.00 83 1029.3
20260830120025 46 318 0.0 0.9 0.00 0.00 0.00 83 1029.2
20260830114522 47 318 0.0 0.0 0.00 0.00 0.00 83 1029.1
20260830113016 47 318 0.0 0.0 0.00 0.00 0.00 83 1029.1
20260830111516 47 318 0.0 0.0 0.00 0.00 0.00 84 1028.9
20260830110015 47 318 0.0 0.0 0.00 0.00 0.00 83 1028.9
20260830104517 48 14 0.0 0.0 0.00 0.00 0.00 81 1028.7
20260830103010 48 14 0.0 0.0 0.00 0.00 0.00 80 1028.6
20260830101510 48 14 0.0 0.0 0.00 0.00 0.00 80 1028.4
20260830100023 49 14 0.0 0.0 0.00 0.00 0.00 78 1028.3
20260830094509 50 14 0.0 1.7 0.00 0.00 0.00 76 1028.1
20260830093110 50 4 0.0 0.0 0.00 0.00 0.00 77 1028.1
20260830091537 51 4 0.0 0.0 0.00 0.00 0.00 74 1028.0
20260830090037 52 62 0.0 0.0 0.00 0.00 0.00 73 1027.7
20260830084532 52 62 0.0 2.6 0.00 0.00 0.00 72 1027.7
20260830083034 55 277 0.0 1.7 0.00 0.00 0.00 69 1027.4
20260830083031 55 277 0.0 1.7 0.00 0.00 0.00 68 1027.4
20260830081532 60 274 0.0 0.0 0.00 0.00 0.00 60 1027.2
20260830080031 62 274 0.0 0.0 0.00 0.00 0.00 53 1027.0
20260830074524 65 215 0.0 0.0 0.00 0.00 0.00 47 1026.9
20260830073027 67 210 0.0 0.0 0.00 0.00 0.00 41 1026.9
20260830071528 68 210 0.0 0.0 0.00 0.00 0.00 42 1026.8
20260830070022 68 210 0.0 1.7 0.00 0.00 0.00 43 1026.8
20260830064548 68 209 0.0 0.9 0.00 0.00 0.00 44 1026.8
20260830063047 68 217 0.0 0.0 0.00 0.00 0.00 41 1026.7
20260830061540 68 217 0.0 0.9 0.00 0.00 0.00 41 1026.7
20260830060039 68 218 0.0 3.5 0.00 0.00 0.00 41 1026.8
20260830054536 68 150 0.0 2.6 0.00 0.00 0.00 39 1027.0